Clayton Lake, ME

2:03 PM EST on December 17, 2017 (GMT -0500)
Clayton Lake

Weather History for K40B - May, 2013

Change the Weather History Date:

Sunday, May 26, 2013

  Actual Average Record
Temperature  
Mean Temperature 42 °F -  
Max Temperature 47 °F 61 °F 80 °F (2001)
Min Temperature 38 °F 38 °F 33 °F (2002)
Degree Days  
Heating Degree Days 22    
Moisture  
Dew Point 42 °F    
Average Humidity 97    
Maximum Humidity 100    
Minimum Humidity 82    
Precipitation  
Precipitation 0.35 in - - ()
Sea Level Pressure  
Sea Level Pressure 29.84 in    
Wind  
Wind Speed 4 mph (NW)    
Max Wind Speed 8 mph    
Max Gust Speed 20 mph    
Averages and records for this station are not official NWS values.
T = Trace of Precipitation, MM = Missing Value Source: NWS Daily Summary

Daily Weather History Graph

Daily Weather History Graph

Search for Another Location

Airport or City:

Trip Planner

Search our weather history database for the weather conditions in past years. The results will help you decide how hot, cold, wet, or windy it might be!

Date:

Astronomy

May. 26, 2013 Rise Set
Actual Time 4:52 AM EDT 8:18 PM EDT
Civil Twilight 4:15 AM EDT 8:55 PM EDT
Nautical Twilight 3:26 AM EDT 9:45 PM EDT
Astronomical Twilight 2:22 AM EDT 10:49 PM EDT
Moon 10:00 PM EDT (5/26) 6:19 AM EDT (5/26)
Length of Visible Light 16h 40m
Length of Day
15h 25m
Waning Gibbous, 97% of the Moon is Illuminated
May 26
Waning Gibbous
May 31
Last Quarter
Jun 8
New
Jun 16
First Quarter
Jun 23
Full

Hourly Weather History & Observations

Time (EDT) Temp. Windchill Dew Point Humidity Pressure Visibility Wind Dir Wind Speed Gust Speed Precip Events Conditions
12:25 AM - - - N/A% 29.90 in - Variable 3.5 mph - 0.09 in   Unknown
1:25 AM - - - N/A% 29.87 in - Variable 3.5 mph - 0.07 in   Unknown
2:25 AM - - - N/A% 29.86 in - Variable 4.6 mph - 0.04 in   Unknown
3:25 AM 38.5 °F - 39.0 °F 100% 29.84 in - Calm Calm - 0.01 in   Unknown
4:25 AM 38.7 °F - 39.2 °F 100% 29.82 in - Variable 2.3 mph - 0.01 in   Unknown
5:25 AM 39.0 °F 36.8 °F 39.6 °F 100% 29.82 in - Variable 3.5 mph - 0.03 in   Unknown
6:25 AM 39.6 °F - 40.1 °F 100% 29.81 in - Calm Calm - 0.02 in   Unknown
7:25 AM 40.6 °F 38.6 °F 40.8 °F 100% 29.81 in - Variable 3.5 mph - N/A   Unknown
8:25 AM 41.5 °F 38.6 °F 41.7 °F 100% 29.81 in - Variable 4.6 mph 12.7 mph 0.03 in   Unknown
9:26 AM 42.6 °F 39.9 °F 42.8 °F 100% 29.81 in - Variable 4.6 mph - 0.07 in   Unknown
10:25 AM 43.9 °F - 43.7 °F 99% 29.80 in - Variable 2.3 mph - 0.04 in   Unknown
11:25 AM 44.6 °F 42.2 °F 44.4 °F 99% 29.81 in - Variable 4.6 mph - 0.01 in   Unknown
12:25 PM 46.0 °F 43.9 °F 45.0 °F 96% 29.80 in - Variable 4.6 mph 17.3 mph 0.01 in   Unknown
1:25 PM 47.7 °F - 45.7 °F 93% 29.79 in - Variable 4.6 mph 13.8 mph N/A   Unknown
2:25 PM 44.6 °F 41.4 °F 44.2 °F 99% 29.81 in - Variable 5.8 mph 12.7 mph N/A   Unknown
3:25 PM 44.1 °F 40.8 °F 42.8 °F 95% 29.82 in - Variable 5.8 mph 19.6 mph N/A   Unknown
4:25 PM 44.6 °F 40.7 °F 40.6 °F 86% 29.83 in - NW 6.9 mph 13.8 mph N/A   Unknown
5:25 PM 43.7 °F 39.1 °F 38.7 °F 82% 29.86 in - WNW 8.1 mph 18.4 mph N/A   Unknown
6:25 PM 43.2 °F 39.7 °F 41.7 °F 95% 29.87 in - Variable 5.8 mph 17.3 mph N/A   Unknown
7:25 PM 42.3 °F 40.5 °F 41.5 °F 97% 29.89 in - Variable 3.5 mph - N/A   Unknown
8:25 PM 41.5 °F 39.6 °F 41.0 °F 98% 29.89 in - Variable 3.5 mph 12.7 mph 0.01 in   Unknown
9:25 PM 41.4 °F 39.4 °F 41.0 °F 99% 29.91 in - Variable 3.5 mph - 0.00 in   Unknown
10:25 PM 40.6 °F 38.6 °F 40.3 °F 99% 29.91 in - Variable 3.5 mph - 0.00 in   Unknown
11:25 PM 39.7 °F - 39.7 °F 100% 29.91 in - Calm Calm - N/A   Unknown